Retour au catalogue

STARLINK-37552

ActifCommunicationsVLEO
NORAD 69513·PAYLOAD·🇺🇸 United States

Lancé Jun 12, 2026 depuis Cape Canaveral Space Force Station

Loading…

Prochains Passages (prochaines 24 heures)

TLE

FraisSource: CelesTrak SupGP

Époque: Sep 14, 2026, 23:32 UTC

1 69513C 26133F   26257.98104167  .00031625  00000+0  93422-3 0  2573
2 69513  53.1564 255.6798 0001439  93.4288 303.1312 15.34379504    18

Suivez STARLINK-37552 en temps réel avec AllMySat

Download on the App Store